Location: Nag� el Ma?a??a
(24.0667°N, 32.8833°E)
Time: 17:12:59
(UTC+00:00)

Cosmos 1943 Rocket - Pass Details

Date: 25 September 2021
Orbit: 810 x 845 km, 71.0° (Epoch: 16 October)

Event Time Altitude Azimuth Distance (km) Brightness Sun altitude
Rises 02:43:56 0° 339° (NNW) 3,402 5.2 -13.2°
Reaches altitude 10° 02:46:23 10° 338° (NNW) 2,465 4.4 -12.6°
Maximum altitude 02:52:01 74° 254° (WSW) 876 2.1 -11.4°
Drops below altitude 10° 02:57:38 10° 169° (S) 2,447 4.7 -10.1°
Sets 03:00:04 0° 168° (SSE) 3,375 5.5 -9.5°
